Flag for Hong Kong Weather past 2 weeks in Hong Kong, Hong Kong

72 °F


Feels Like: 76 °F
Forecast: 67 / 78 °F
Wind: 5 mph from Northwest

Location: National Airport

Current Time: Nov 28, 2015 at 6:11:41 PM

Latest Report: Nov 28, 2015 at 5:30 PM

Visibility: 5 mi

Pressure: 30.15 "Hg

Humidity: 57%

Dew point: 55 °F

Location of Hong KongLocation

Historic Weather in Hong Kong — Graph


Hong Kong temperature yesterday

Maximum temperature yesterday: 70 °F (at 12:00 PM)
Minimum temperature yesterday: 59 °F (at 3:30 AM)
Average temperature yesterday: 65 °F

Past Weeks' High & Low Weather Summary

High88 °F (Nov 19, 1:00 PM)94% (Nov 13, 6:00 PM)30.24 "Hg (Nov 13, 6:00 PM)
Low59 °F (Nov 26, 4:00 AM)22% (Nov 26, 2:30 PM)29.86 "Hg (Nov 16, 2:30 PM)
Average76 °F68%30.02 "Hg
* Reported Nov 13 5:00 PM — Nov 28 5:00 PM, Hong Kong, Weather by CustomWeather, © 2015

Note: Actual official high and low records may vary slightly from our data, if they occured in-between our weather recording intervals... More about our weather records


Hong Kong weather history for previous 24 hours

Time TempWeatherWind HumidityBarometerVisibility
5:00 PM
Sat, Nov 28
72 °FClear.6 mph61%30.15 "Hg5 mi
4:30 PM73 °FClear.7 mph57%30.15 "Hg5 mi
4:00 PM73 °FClear.9 mph57%30.15 "Hg6 mi
2:30 PM75 °FPassing clouds.10 mph50%30.15 "HgN/A
2:00 PM77 °FPassing clouds.9 mph47%30.15 "HgN/A
1:30 PM77 °FPassing clouds.9 mph47%30.15 "HgN/A
1:00 PM77 °FPassing clouds.7 mph47%30.18 "HgN/A
12:30 PM77 °FPassing clouds.10 mph51%30.18 "HgN/A
12:00 PM73 °FPassing clouds.9 mph57%30.21 "HgN/A
11:30 AM73 °FPassing clouds.9 mph57%30.21 "HgN/A
11:00 AM73 °FScattered clouds.8 mph57%30.21 "HgN/A
10:30 AM73 °FPassing clouds.12 mph57%30.21 "HgN/A
10:00 AM72 °FPassing clouds.13 mph61%30.21 "HgN/A
9:30 AM72 °FPassing clouds.15 mph61%30.21 "HgN/A
8:00 AM68 °FPassing clouds.10 mph64%30.21 "HgN/A
7:00 AM66 °FPassing clouds.8 mph73%30.21 "HgN/A
6:30 AM66 °FPassing clouds.9 mph73%30.18 "HgN/A
6:00 AM68 °FPassing clouds.7 mph69%30.18 "HgN/A
5:30 AM68 °FPassing clouds.9 mph69%30.18 "HgN/A
5:00 AM66 °FPassing clouds.13 mph68%30.15 "HgN/A
4:30 AM68 °FPassing clouds.8 mph64%30.15 "HgN/A
4:00 AM68 °FPassing clouds.12 mph64%30.15 "HgN/A
3:30 AM68 °FPassing clouds.12 mph64%30.15 "HgN/A
3:00 AM68 °FPassing clouds.13 mph64%30.18 "HgN/A
2:30 AM68 °FPassing clouds.16 mph64%30.15 "HgN/A
2:00 AM68 °FPassing clouds.17 mph64%30.15 "HgN/A
1:30 AM68 °FPassing clouds.16 mph69%30.15 "HgN/A
1:00 AM68 °FPassing clouds.15 mph64%30.18 "HgN/A
12:30 AM70 °FPassing clouds.14 mph60%30.18 "HgN/A
12:00 AM70 °FPassing clouds.16 mph60%30.18 "HgN/A
11:30 PM
Fri, Nov 27
70 °FPassing clouds.16 mph60%30.21 "HgN/A
11:00 PM70 °FPassing clouds.17 mph60%30.21 "HgN/A
10:30 PM70 °FPassing clouds.13 mph60%30.21 "HgN/A
10:00 PM70 °FPassing clouds.12 mph57%30.21 "HgN/A
9:30 PM68 °FPassing clouds.12 mph64%30.21 "HgN/A
9:00 PM70 °FPassing clouds.15 mph57%30.18 "HgN/A
8:30 PM70 °FPassing clouds.16 mph57%30.18 "HgN/A
8:00 PM68 °FPassing clouds.15 mph60%30.18 "HgN/A
7:30 PM68 °FPassing clouds.14 mph56%30.18 "HgN/A
7:00 PM68 °FPassing clouds.12 mph56%30.18 "HgN/A
6:30 PM68 °FPassing clouds.13 mph56%30.15 "HgN/A
6:00 PM68 °FPassing clouds.10 mph53%30.15 "HgN/A
Weather by CustomWeather, © 2015

See weather overviewHow to use our weather pages